FW7738 Weather Reports


time (UTC)temp
F
wind
direction
speed
knots
gust
knots
rain 1hr
in
rain 24hr
in
rain mn
in
humidity
%
barometer
mb
20260509101031 59 335 1.7 3.5 0.18 0.36 0.36 93 1010.3
20260509100025 59 1 2.6 5.2 0.17 0.33 0.33 93 1010.0
20260509095021 59 350 0.0 0.9 0.17 0.30 0.30 92 1010.3
20260509094036 59 352 0.9 2.6 0.18 0.28 0.28 92 1010.1
20260509093032 59 36 1.7 3.5 0.19 0.24 0.24 92 1009.8
20260509092048 59 21 4.3 7.0 0.19 0.22 0.22 92 1009.9
20260509091023 59 22 2.6 5.2 0.18 0.19 0.19 91 1010.0
20260509090138 59 20 3.5 6.1 0.16 0.16 0.16 90 1010.2
20260509085114 60 329 1.7 3.5 0.13 0.13 0.13 89 1010.6
20260509084029 60 343 2.6 3.5 0.09 0.09 0.09 87 1010.8
20260509083024 61 20 1.7 3.5 0.05 0.05 0.05 85 1010.7
20260509082020 61 48 1.7 3.5 0.03 0.03 0.03 85 1010.5
20260509081015 61 0 2.6 3.5 0.01 0.01 0.01 84 1010.6
20260509080031 61 27 1.7 3.5 0.00 0.00 0.00 82 1010.4
20260509075026 61 293 1.7 2.6 0.00 0.00 0.00 82 1010.7
20260509074022 61 311 0.9 1.7 0.00 0.00 0.00 81 1010.7
20260509073017 62 0.0 0.0 0.00 0.00 0.00 81 1010.8
20260509072033 62 256 0.0 0.9 0.00 0.00 0.00 80 1010.9
20260509071028 62 242 0.9 1.7 0.00 0.00 0.00 80 1011.0
20260509070023 61 252 0.9 1.7 0.00 0.00 0.00 81 1010.5
20260509065019 61 0.0 0.0 0.00 0.00 0.00 81 1009.9
20260509064034 61 2 1.7 3.5 0.00 0.00 0.00 82 1009.5
20260509063029 61 353 3.5 7.0 0.00 0.00 0.00 82 1009.3
20260509062025 61 8 2.6 5.2 0.00 0.00 0.00 83 1009.3
20260509061020 61 12 5.2 9.6 0.00 0.00 0.00 83 1009.2
20260509060016 61 30 0.9 2.6 0.00 0.00 0.00 82 1010.2
20260509055031 61 320 1.7 2.6 0.00 0.00 0.00 83 1010.7
20260509054027 61 331 1.7 3.5 0.00 0.00 0.00 83 1010.5
20260509053022 61 12 2.6 3.5 0.00 0.00 0.00 83 1010.2
20260509052017 61 14 3.5 6.1 0.00 0.00 0.00 83 1010.1
20260509051034 61 7 3.5 6.1 0.00 0.00 0.00 83 1010.3
20260509050029 61 6 1.7 3.5 0.00 0.00 0.00 83 1010.3
20260509045024 61 23 3.5 7.0 0.00 0.00 0.00 83 1010.0
20260509044020 61 20 3.5 6.1 0.00 0.00 0.00 83 1010.2
20260509043015 61 25 1.7 5.2 0.00 0.00 0.00 84 1009.8
20260509042031 61 31 0.9 2.6 0.00 0.00 0.00 83 1010.2
20260509041046 61 25 0.9 2.6 0.00 0.00 0.00 84 1010.2
20260509040042 61 8 0.9 2.6 0.00 0.00 0.00 84 1010.2
20260509035017 61 25 0.9 2.6 0.00 0.00 0.00 83 1010.3
20260509034033 60 15 0.9 1.7 0.00 0.00 0.00 83 1010.3
20260509033028 60 1 1.7 2.6 0.00 0.00 0.00 82 1010.3
20260509032023 61 352 1.7 3.5 0.00 0.00 0.00 81 1010.5
20260509031019 61 20 1.7 3.5 0.00 0.00 0.00 81 1010.3
20260509030034 61 21 2.6 7.0 0.00 0.00 0.00 81 1010.3
20260509025029 60 18 2.6 6.1 0.00 0.00 0.00 82 1010.5
20260509024044 60 12 2.6 5.2 0.00 0.00 0.00 82 1010.5
20260509023040 60 17 1.7 2.6 0.00 0.00 0.00 82 1010.6
20260509022015 60 355 1.7 1.7 0.00 0.00 0.00 81 1010.6
20260509021031 60 347 1.7 2.6 0.00 0.00 0.00 82 1010.8
20260509020026 60 359 1.7 2.6 0.00 0.00 0.00 83 1010.7
20260509015022 60 6 0.9 2.6 0.00 0.00 0.00 83 1010.8
20260509014016 60 16 0.0 0.9 0.00 0.00 0.00 83 1010.9
20260509013032 60 23 0.9 1.7 0.00 0.00 0.00 82 1011.1
20260509012128 61 23 1.7 3.5 0.00 0.00 0.00 81 1011.0
20260509011023 61 26 2.6 5.2 0.00 0.00 0.00 81 1011.2
20260509010018 61 20 3.5 6.1 0.00 0.00 0.00 82 1011.4
20260509005033 61 21 3.5 5.2 0.00 0.00 0.00 83 1011.5
20260509004029 61 36 1.7 5.2 0.00 0.00 0.00 84 1011.6
20260509003024 61 33 1.7 5.2 0.00 0.00 0.00 85 1011.8
20260509002020 61 21 2.6 5.2 0.00 0.00 0.00 85 1012.0
20260509001035 61 21 2.6 5.2 0.00 0.00 0.00 85 1011.8
20260509000051 61 20 1.7 3.5 0.00 0.00 0.00 85 1011.9
20260508235026 61 22 0.9 3.5 0.00 0.00 0.00 85 1012.1
20260508234021 61 23 0.9 2.6 0.00 0.00 0.00 85 1012.1
20260508233017 61 20 2.6 5.2 0.00 0.00 0.00 85 1012.0
20260508232032 61 29 1.7 5.2 0.00 0.00 0.00 85 1012.1
20260508231028 61 28 2.6 6.1 0.00 0.00 0.00 85 1012.1
20260508230023 61 17 3.5 7.0 0.00 0.00 0.00 86 1012.2
20260508225018 61 23 2.6 5.2 0.00 0.00 0.00 86 1012.2
20260508224033 62 16 2.6 5.2 0.00 0.00 0.00 86 1012.3
20260508223029 62 25 1.7 3.5 0.00 0.00 0.00 86 1012.7
20260508222023 62 29 0.0 1.7 0.00 0.00 0.00 86 1012.6
20260508221039 62 21 1.7 2.6 0.00 0.00 0.00 86 1012.6
20260508220054 62 1 0.9 1.7 0.00 0.00 0.00 86 1012.7
20260508215030 62 10 0.9 2.6 0.00 0.00 0.00 86 1012.6
20260508214026 62 1 0.9 1.7 0.00 0.00 0.00 85 1012.7
20260508213021 62 48 0.0 1.7 0.00 0.00 0.00 85 1012.6
20260508212016 62 70 0.0 0.9 0.00 0.00 0.00 85 1012.6
20260508211032 62 67 0.0 0.9 0.00 0.00 0.00 85 1012.7
20260508210048 62 71 0.0 2.6 0.00 0.00 0.00 85 1012.6
20260508205044 63 77 0.9 1.7 0.00 0.00 0.00 85 1012.6
20260508204020 63 67 0.0 2.6 0.00 0.00 0.00 85 1012.4
20260508203035 62 70 0.9 2.6 0.00 0.00 0.00 85 1012.3
20260508202050 62 84 0.9 3.5 0.00 0.00 0.00 85 1012.4
20260508201025 62 81 0.9 5.2 0.00 0.00 0.00 85 1012.3
20260508200020 62 88 1.7 3.5 0.00 0.00 0.00 85 1012.1
20260508195016 62 92 1.7 2.6 0.00 0.00 0.00 85 1012.0
20260508194031 63 91 1.7 3.5 0.00 0.00 0.00 85 1012.0
20260508193027 63 91 2.6 3.5 0.00 0.00 0.00 85 1011.9
20260508192042 63 96 2.6 5.2 0.00 0.00 0.00 85 1011.6
20260508191038 63 94 3.5 7.0 0.00 0.01 0.00 84 1011.5
20260508190033 63 93 3.5 6.1 0.00 0.04 0.00 84 1011.5
20260508185029 63 89 2.6 6.1 0.00 0.06 0.00 84 1011.4
20260508184024 64 90 4.3 8.7 0.00 0.07 0.00 82 1011.2
20260508183020 64 96 4.3 8.7 0.00 0.09 0.00 81 1011.0
20260508182035 64 90 5.2 12.2 0.00 0.12 0.00 80 1011.0
20260508181030 64 91 6.1 11.3 0.00 0.14 0.00 78 1011.0
20260508180026 65 93 7.0 11.3 0.00 0.21 0.00 77 1011.0
20260508175041 65 83 5.2 11.3 0.00 0.28 0.00 75 1011.0
20260508174016 65 84 4.3 8.7 0.00 0.30 0.00 75 1011.0
20260508173032 65 100 5.2 8.7 0.00 0.32 0.00 73 1011.0
20260508172027 66 116 4.3 7.8 0.00 0.33 0.00 72 1011.0
20260508171043 65 93 6.1 11.3 0.00 0.33 0.00 71 1010.9
20260508170018 65 99 6.1 11.3 0.00 0.33 0.00 71 1010.9
20260508165054 66 104 6.1 9.6 0.00 0.33 0.00 70 1010.9
20260508164029 66 114 5.2 8.7 0.00 0.33 0.00 69 1011.0
20260508163025 66 113 7.0 11.3 0.00 0.33 0.00 70 1011.0
20260508162020 66 94 7.0 11.3 0.00 0.33 0.00 72 1010.9
20260508161016 66 115 6.1 12.2 0.00 0.33 0.00 72 1010.9
20260508160031 65 114 6.1 13.0 0.00 0.33 0.00 75 1010.6
20260508155027 66 121 7.0 13.0 0.00 0.33 0.00 74 1010.5
20260508154023 66 107 7.0 12.2 0.00 0.33 0.00 75 1010.3
20260508153038 66 105 7.8 13.0 0.00 0.33 0.00 72 1010.4
20260508152033 66 97 7.0 13.9 0.00 0.33 0.00 74 1010.3
20260508151029 66 104 7.0 14.8 0.00 0.33 0.00 76 1010.5
20260508150025 67 116 7.8 15.6 0.00 0.33 0.00 73 1010.4
20260508145021 67 119 9.6 14.8 0.00 0.33 0.00 69 1010.7
20260508144015 67 116 8.7 13.9 0.00 0.33 0.00 68 1010.8
20260508143031 69 108 7.0 13.0 0.00 0.33 0.00 65 1011.1
20260508142026 68 62 3.5 7.0 0.00 0.33 0.00 65 1011.2
20260508141042 68 81 1.7 5.2 0.00 0.33 0.00 65 1011.3
20260508140018 67 79 4.3 8.7 0.00 0.33 0.00 68 1011.5
20260508135033 66 74 4.3 8.7 0.00 0.33 0.00 70 1011.6
20260508134029 66 73 4.3 9.6 0.00 0.33 0.00 70 1011.5
20260508133044 65 83 2.6 7.0 0.00 0.33 0.00 70 1011.6
20260508132020 65 51 1.7 3.5 0.00 0.33 0.00 71 1012.0
20260508131035 65 47 1.7 5.2 0.00 0.33 0.00 71 1012.2
20260508130030 65 101 2.6 6.1 0.00 0.33 0.00 71 1012.4
20260508125025 64 82 1.7 5.2 0.00 0.33 0.00 72 1012.2
20260508124021 64 98 1.7 5.2 0.00 0.33 0.00 72 1012.4
20260508123016 64 84 0.9 2.6 0.00 0.33 0.00 72 1012.5
20260508122051 64 93 1.7 5.2 0.00 0.33 0.00 73 1012.5
20260508121027 64 110 1.7 3.5 0.00 0.33 0.00 77 1012.6
20260508120042 64 128 0.9 3.5 0.00 0.33 0.00 76 1012.6
20260508115018 64 128 0.9 2.6 0.00 0.33 0.00 76 1012.5
20260508114033 64 80 0.0 1.7 0.00 0.33 0.00 76 1012.4
20260508113028 64 68 0.0 0.9 0.00 0.33 0.00 76 1012.4
20260508112024 63 86 0.9 1.7 0.00 0.33 0.00 76 1012.3
20260508111019 63 82 1.7 2.6 0.00 0.33 0.00 76 1012.3
20260508110035 63 102 2.6 3.5 0.00 0.33 0.00 76 1012.4
20260508105051 63 91 2.6 5.2 0.00 0.34 0.00 77 1012.5
20260508104026 63 96 2.6 5.2 0.00 0.34 0.00 76 1012.5
20260508103042 64 105 1.7 2.6 0.00 0.34 0.00 75 1012.8
20260508102017 64 108 0.0 1.7 0.00 0.34 0.00 74 1012.9